Weather History for Plainview, TX

Change the Weather History Date:

Saturday, July 6, 2013

  Actual Average Record
Temperature  
Mean Temperature 80 °F -  
Max Temperature 95 °F 91 °F 103 °F (1971)
Min Temperature 65 °F 66 °F 52 °F (1924)
Cooling Degree Days 15    
Growing Degree Days 30 (Base 50)    
Moisture  
Dew Point 49 °F    
Average Humidity 35    
Maximum Humidity 60    
Minimum Humidity 19    
Precipitation  
Precipitation 0.00 in - - ()
Sea Level Pressure  
Sea Level Pressure 29.95 in    
Wind  
Wind Speed 12 mph (South)    
Max Wind Speed 22 mph    
Max Gust Speed 30 mph    
Visibility 10 miles    
Events      
Averages and records for this station are not official NWS values.
T = Trace of Precipitation, MM = Missing Value Source: NWS Daily Summary

Daily Weather History Graph

Daily Weather History Graph

Search for Another Location

Airport:

Trip Planner

Search our weather history database for the weather conditions in past years. The results will help you decide how hot, cold, wet, or windy it might be!

Date:

Astronomy

Jul. 06, 2013 Rise Set
Actual Time 6:41 AM CDT 9:01 PM CDT
Civil Twilight 6:12 AM CDT 9:30 PM CDT
Nautical Twilight 5:36 AM CDT 10:06 PM CDT
Astronomical Twilight 4:57 AM CDT 10:45 PM CDT
Moon 5:26 AM CDT (7/6) 7:47 PM CDT (7/6)
Length of Visible Light 15h 18m
Length of Day
14h 20m
Waning Crescent, 2% of the Moon is Illuminated
Jul 6
Waning Crescent
Jul 8
New
Jul 15
First Quarter
Jul 22
Full
Jul 29
Last Quarter

Hourly Weather History & Observations

Time (CDT) Temp. Heat Index Dew Point Humidity Pressure Visibility Wind Dir Wind Speed Gust Speed Precip Events Conditions
12:15 AM 75.2 °F - 46.8 °F 36% 29.95 in 10.0 mi SSE 11.5 mph - N/A   Clear
12:35 AM 75.2 °F - 46.4 °F 36% 29.95 in 10.0 mi South 12.7 mph - N/A   Clear
12:55 AM 75.2 °F - 46.0 °F 35% 29.95 in 10.0 mi South 12.7 mph - N/A   Clear
1:15 AM 75.2 °F - 46.2 °F 36% 29.95 in 10.0 mi South 12.7 mph - N/A   Clear
1:35 AM 75.2 °F - 46.4 °F 36% 29.95 in 10.0 mi South 11.5 mph - N/A   Clear
1:55 AM 75.2 °F - 47.3 °F 37% 29.95 in 10.0 mi South 11.5 mph - N/A   Clear
2:15 AM 75.2 °F - 47.5 °F 37% 29.95 in 10.0 mi South 10.4 mph - N/A   Clear
2:35 AM 75.2 °F - 48.4 °F 39% 29.95 in 10.0 mi South 10.4 mph - N/A   Clear
2:55 AM 75.0 °F - 48.2 °F 39% 29.95 in 10.0 mi South 9.2 mph - N/A   Clear
3:15 AM 72.1 °F - 46.9 °F 41% 29.95 in 10.0 mi SSW 8.1 mph - N/A   Clear
3:35 AM 70.7 °F - 46.9 °F 43% 29.95 in 10.0 mi South 8.1 mph - N/A   Clear
3:55 AM 70.0 °F - 47.8 °F 45% 29.95 in 10.0 mi South 8.1 mph - N/A   Clear
4:15 AM 70.0 °F - 47.7 °F 45% 29.96 in 10.0 mi SSW 8.1 mph - N/A   Clear
4:35 AM 70.0 °F - 48.2 °F 46% 29.96 in 10.0 mi SSW 5.8 mph - N/A   Clear
4:55 AM 70.0 °F - 49.5 °F 48% 29.96 in 10.0 mi SSW 5.8 mph - N/A   Clear
5:15 AM 70.0 °F - 50.7 °F 50% 29.96 in 10.0 mi South 5.8 mph - N/A   Clear
5:35 AM 70.0 °F - 51.1 °F 51% 29.96 in 10.0 mi SSW 6.9 mph - N/A   Clear
5:55 AM 67.8 °F - 51.8 °F 56% 29.96 in 10.0 mi South 5.8 mph - N/A   Clear
6:15 AM 70.0 °F - 51.8 °F 52% 29.96 in 10.0 mi SSW 8.1 mph - N/A   Clear
6:35 AM 68.4 °F - 52.3 °F 57% 29.97 in 10.0 mi South 5.8 mph - N/A   Clear
6:55 AM 65.5 °F - 51.3 °F 60% 29.97 in 10.0 mi South 6.9 mph - N/A   Scattered Clouds
7:15 AM 70.0 °F - 53.8 °F 56% 29.98 in 10.0 mi SSE 5.8 mph - N/A   Scattered Clouds
7:35 AM 70.0 °F - 54.5 °F 58% 29.99 in 10.0 mi South 6.9 mph - N/A   Scattered Clouds
7:55 AM 70.0 °F - 54.0 °F 57% 29.99 in 10.0 mi South 5.8 mph - N/A   Mostly Cloudy
8:15 AM 70.0 °F - 52.3 °F 53% 29.99 in 10.0 mi SSW 6.9 mph - N/A   Mostly Cloudy
8:35 AM 73.6 °F - 53.8 °F 50% 29.99 in 10.0 mi SSW 10.4 mph - N/A   Mostly Cloudy
8:55 AM 75.2 °F - 53.8 °F 47% 29.99 in 10.0 mi SSW 13.8 mph - N/A   Scattered Clouds
9:15 AM 75.2 °F - 53.2 °F 46% 29.99 in 10.0 mi SSW 16.1 mph - N/A   Clear
9:35 AM 77.5 °F - 53.4 °F 43% 29.99 in 10.0 mi SSW 18.4 mph 25.3 mph N/A   Clear
9:55 AM 79.9 °F - 54.7 °F 42% 29.99 in 10.0 mi SSW 16.1 mph 25.3 mph N/A   Clear
10:15 AM 80.2 °F 80.1 °F 53.6 °F 40% 29.99 in 10.0 mi SSW 16.1 mph 25.3 mph N/A   Clear
10:35 AM 80.8 °F 80.5 °F 54.1 °F 40% 29.99 in 10.0 mi SSW 19.6 mph 26.5 mph N/A   Clear
10:55 AM 81.9 °F 81.2 °F 54.3 °F 39% 29.98 in 10.0 mi South 17.3 mph 26.5 mph N/A   Clear
11:15 AM 82.6 °F 81.5 °F 53.4 °F 36% 29.98 in 10.0 mi South 16.1 mph 26.5 mph N/A   Clear
11:35 AM 84.0 °F - 52.9 °F 34% 29.98 in 10.0 mi South 18.4 mph 25.3 mph N/A   Clear
11:55 AM 84.2 °F - 51.1 °F 32% 29.98 in 10.0 mi SSW 19.6 mph 27.6 mph N/A   Clear
12:15 PM 88.7 °F 86.5 °F 53.2 °F 30% 29.98 in 10.0 mi SSW 19.6 mph 25.3 mph N/A   Clear
12:35 PM 89.2 °F 86.9 °F 53.4 °F 29% 29.97 in 10.0 mi South 18.4 mph 25.3 mph N/A   Clear
12:55 PM 90.1 °F - 52.5 °F 28% 29.97 in 10.0 mi South 17.3 mph 25.3 mph N/A   Clear
1:15 PM 90.1 °F - 52.0 °F 27% 29.96 in 10.0 mi South 18.4 mph 26.5 mph N/A   Clear
1:35 PM 90.1 °F - 47.8 °F 23% 29.96 in 10.0 mi South 20.7 mph 26.5 mph N/A   Clear
1:55 PM 90.1 °F - 47.7 °F 23% 29.95 in 10.0 mi South 18.4 mph 25.3 mph N/A   Clear
2:15 PM 90.7 °F - 45.9 °F 21% 29.95 in 10.0 mi South 19.6 mph 29.9 mph N/A   Clear
2:35 PM 91.0 °F - 47.5 °F 22% 29.94 in 10.0 mi South 21.9 mph 26.5 mph N/A   Clear
2:55 PM 92.5 °F - 45.1 °F 19% 29.94 in 10.0 mi South 21.9 mph 26.5 mph N/A   Clear
3:15 PM 93.9 °F - 48.4 °F 21% 29.94 in 10.0 mi South 18.4 mph 26.5 mph N/A   Clear
3:35 PM 95.2 °F - 47.7 °F 20% 29.93 in 10.0 mi South 16.1 mph 24.2 mph N/A   Clear
3:55 PM 95.0 °F - 47.3 °F 20% 29.93 in 10.0 mi South 17.3 mph 26.5 mph N/A   Clear
4:15 PM 93.2 °F - 46.9 °F 20% 29.92 in 10.0 mi South 16.1 mph 25.3 mph N/A   Clear
4:35 PM 93.0 °F - 47.3 °F 21% 29.91 in 10.0 mi South 15.0 mph 24.2 mph N/A   Clear
4:55 PM 95.2 °F - 48.2 °F 20% 29.91 in 10.0 mi South 21.9 mph 26.5 mph N/A   Clear
5:15 PM 95.2 °F - 47.3 °F 19% 29.91 in 10.0 mi South 17.3 mph 21.9 mph N/A   Clear
5:35 PM 95.2 °F - 46.6 °F 19% 29.90 in 10.0 mi South 16.1 mph 23.0 mph N/A   Clear
5:55 PM 92.7 °F - 46.0 °F 20% 29.90 in 10.0 mi South 16.1 mph - N/A   Clear
6:15 PM 92.7 °F - 46.0 °F 20% 29.90 in 10.0 mi South 16.1 mph 23.0 mph N/A   Clear
6:35 PM 91.0 °F - 46.8 °F 22% 29.89 in 10.0 mi South 16.1 mph 21.9 mph N/A   Clear
6:55 PM 90.1 °F - 46.9 °F 22% 29.90 in 10.0 mi South 13.8 mph 23.0 mph N/A   Clear
7:15 PM 90.1 °F - 47.3 °F 23% 29.90 in 10.0 mi SSE 15.0 mph - N/A   Clear
7:35 PM 90.1 °F - 47.3 °F 23% 29.91 in 10.0 mi SSE 15.0 mph 21.9 mph N/A   Clear
7:55 PM 90.1 °F - 48.2 °F 24% 29.92 in 10.0 mi SSE 12.7 mph - N/A   Clear
8:15 PM 89.1 °F - 47.8 °F 24% 29.92 in 10.0 mi SSE 11.5 mph - N/A   Clear
8:35 PM 84.9 °F - 45.7 °F 25% 29.92 in 10.0 mi SSE 11.5 mph - N/A   Clear
8:55 PM 82.9 °F - 46.4 °F 28% 29.93 in 10.0 mi SSE 10.4 mph - N/A   Clear
9:15 PM 81.5 °F - 46.6 °F 29% 29.94 in 10.0 mi SSE 9.2 mph - N/A   Clear
9:35 PM 80.1 °F - 46.4 °F 31% 29.94 in 10.0 mi SSE 9.2 mph - N/A   Clear
9:55 PM 80.1 °F - 47.3 °F 32% 29.95 in 10.0 mi SSE 9.2 mph - N/A   Clear
10:15 PM 77.9 °F - 46.0 °F 32% 29.96 in 10.0 mi SSE 8.1 mph - N/A   Clear
10:35 PM 77.5 °F - 46.6 °F 33% 29.97 in 10.0 mi SSE 9.2 mph - N/A   Clear
10:55 PM 77.5 °F - 46.8 °F 34% 29.98 in 10.0 mi SSE 10.4 mph - N/A   Clear
11:15 PM 77.0 °F - 47.7 °F 35% 29.98 in 10.0 mi SSE 9.2 mph - N/A   Clear
11:35 PM 75.2 °F - 46.9 °F 37% 29.99 in 10.0 mi SSE 8.1 mph - N/A   Clear
11:55 PM 75.2 °F - 48.2 °F 38% 29.99 in 10.0 mi SSE 9.2 mph - N/A   Clear